Hourly Data Report for September 22, 2016

All times are specified in Local Standard Time (LST). Add 1 hour to adjust for Daylight Saving Time where and when it is observed.

CORAL HARBOUR A
NUNAVUT

64°11'36.000" N
83°21'34.000" W
62.20 m
2301002
71915
YZS

Download Data

Hourly Data (September 2016)
Hourly Data Report for September 22, 2016
Temp Definition
°C
Dew Point Temp Definition
°C
Rel Hum Definition
%
Wind Dir Definition
10's deg

Wind Spd Definition
km/h
Visibility Definition
km
Stn Press Definition
kPa
Hmdx Definition


Wind Chill Definition


Weather Definition


TIME
00:00 Legend Double Dagger 1.8 -0.3 86 36 29 24.1 99.82     LegendNANA
01:00 Legend Double Dagger 1.7 0.1 89 36 36 24.1 99.84     Cloudy
02:00 Legend Double Dagger 1.7 -0.6 85 35 35 24.1 99.85     LegendNANA
03:00 Legend Double Dagger 1.6 -0.8 84 36 36 24.1 99.88     LegendNANA
04:00 Legend Double Dagger 1.6 -0.7 85 35 31 24.1 99.95     Cloudy
05:00 Legend Double Dagger 1.4 -0.8 85 35 24 24.1 100.00     LegendNANA
06:00 Legend Double Dagger 1.3 -0.8 86 35 19 24.1 100.06     LegendNANA
07:00 Legend Double Dagger 1.3 -1.1 84 34 29 24.1 100.09     Cloudy
08:00 Legend Double Dagger 1.4 -1.0 84 35 30 24.1 100.14     LegendNANA
09:00 Legend Double Dagger 1.4 -1.3 82 35 28 24.1 100.17     LegendNANA
10:00 Legend Double Dagger 1.8 -0.9 82 36 30 24.1 100.19     Cloudy
11:00 Legend Double Dagger 1.7 -0.9 83 36 22 24.1 100.25     LegendNANA
12:00 Legend Double Dagger 2.0 -0.8 82 36 27 24.1 100.26     Snow
13:00 Legend Double Dagger 2.2 -0.7 81 35 29 24.1 100.31     Cloudy
14:00 Legend Double Dagger 2.6 -0.9 78 35 32 24.1 100.34     LegendNANA
15:00 Legend Double Dagger 3.5 -0.9 73 35 34 24.1 100.39     LegendNANA
16:00 Legend Double Dagger 2.9 -1.3 74 35 36 24.1 100.43     Mainly Clear
17:00 Legend Double Dagger 3.5 -1.7 69 36 32 24.1 100.44     LegendNANA
18:00 Legend Double Dagger 2.3 -2.0 73 34 24 24.1 100.48     LegendNANA
19:00 Legend Double Dagger 1.0 -2.6 77 34 23 24.1 100.50     Mainly Clear
20:00 Legend Double Dagger 0.5 -2.6 80 33 20 24.1 100.52     LegendNANA
21:00 Legend Double Dagger 0.2 -2.7 81 31 13 24.1 100.54     LegendNANA
22:00 Legend Double Dagger -0.2 -3.1 81 34 13 24.1 100.54   -4 Clear
23:00 Legend Double Dagger -0.4 -3.3 81 34 12 24.1 100.58   -4 LegendNANA

Notes on Data Quality.

Legend

  • E = Estimated
  • M = Missing
  • NA = Not Available
  • ‡ = Partner data that is not subject to review by the National Climate Archives
Date modified: